Regional Weather Roundup
Issued by NWS Sterling, VA

Home | Current Version | Previous Version | Graphics & Text | Print | Product List | Glossary On
Versions: 1 2 3 4 5 6 7 8 9 10 11 12 13 14 15 16 17 18 19 20 21 22 23 24 25 26 27
000
ASUS41 KLWX 231111
RWRLWX

REGIONAL WEATHER ROUNDUP
NATIONAL WEATHER SERVICE BALTIMORE MD/WASHINGTON DC
600 AM EST THU NOV 23 2017

Note: "FAIR" indicates few or no clouds below 12,000 feet
with no significant weather and/or obstructions to visibility.
 TC=TEMPERATURE CELSIUS

 * =Non NWS site. Station does not report precipitation (e.g. rain,
    snow, etc.), thunder, or fog.

DCZ001-MDZ009-015-VAZ040>042-051-053>054-231200-
WASHINGTON METRO

CITY           SKY/WX    TMP DP  RH WIND       PRES   REMARKS
WASHINGTON NAT PTCLDY    33  22  63 N8        30.19S WCI  26
DULLES         CLOUDY    27  21  78 CALM      30.18R
ANDREWS AFB    CLEAR     25  21  85 NW3       30.16S
FT BELVOIR     CLEAR     25  22  88 CALM      30.19R
QUANTICO       CLOUDY    31  23  72 N3        30.20R
COLLEGE PARK*  CLEAR     26  23  87 CALM      30.18R
LEESBURG*      CLOUDY    28  27  93 NW5       30.19R
MANASSAS*      CLOUDY    21  18  88 CALM      30.19S
GAITHERSBURG*  CLOUDY    26  21  81 CALM      30.17R

$$

MDZ006>007-011-014-231200-
BALTIMORE METRO

CITY           SKY/WX    TMP DP  RH WIND       PRES   REMARKS
BWI AIRPORT    PTCLDY    28  23  81 CALM      30.17R
MD SCIENCE CTR   N/A     33  22  63 MISG      30.17R
MARTIN STATE   CLEAR     28  25  86 CALM      30.18S
FORT MEADE*    CLEAR     25  23  93 CALM      30.20R

$$

MDZ012-015-019>023-231200-
MARYLAND EASTERN SHORE

CITY           SKY/WX    TMP DP  RH WIND       PRES   REMARKS
OCEAN CITY     PTCLDY    31  24  75 NW8       30.15S WCI  23
SALISBURY      CLOUDY    30  25  81 NW3       30.16R
CAMBRIDGE*     CLEAR     30  27  86 N3        30.16S
EASTON*        PTCLDY    32  25  74 N5        30.19F

$$

MDZ017>025-231200-
SOUTHERN MARYLAND

CITY           SKY/WX    TMP DP  RH WIND       PRES   REMARKS
PATUXENT RIVER CLOUDY    35  24  64 NW14      30.16S WCI  26
ST INIGOES     PTCLDY    34  26  72 NW5       30.16S
LEONARDTOWN*   CLOUDY    32  27  80 CALM      30.18S

$$

MDZ003>005-231200-
NORTH CENTRAL MARYLAND

CITY           SKY/WX    TMP DP  RH WIND       PRES   REMARKS
FREDERICK*     CLOUDY    27  25  93 CALM      30.20R
HAGERSTOWN APT CLOUDY    31  22  69 W5        30.15R
WESTMINSTER*   CLOUDY    28  21  74 CALM      30.13S

$$

MDZ501>502-231200-
WESTERN MARYLAND

CITY           SKY/WX    TMP DP  RH WIND       PRES   REMARKS
OAKLAND*       CLOUDY    21  18  86 NW7       30.03R
CUMBERLAND*    CLOUDY    32  21  64 W3        30.21S

$$

VAZ025>031-231200-
SHENANDOAH VALLEY

CITY           SKY/WX    TMP DP  RH WIND       PRES   REMARKS
WINCHESTER*    CLOUDY    27  19  74 CALM      30.17R
FRONT ROYAL*   CLOUDY    23  21  93 MISG      30.16S
LURAY*         CLOUDY    23  23 100 CALM      30.16S
NEW MARKET*    CLOUDY    19  17  92 CALM      30.16S
STAUNTON*      CLOUDY    18  15  91 CALM      30.16S
WAYNESBORO*    CLOUDY    21  19  92 CALM      30.13R

$$

WVZ021-048>050-054>055-231200-
EASTERN WEST VIRGINIA PANHANDLE

CITY           SKY/WX    TMP DP  RH WIND       PRES   REMARKS
MARTINSBURG    CLOUDY    29  18  63 W6        30.17R
PETERSBURG*    CLOUDY    19  17  92 CALM      30.17R

$$

VAZ036>039-050-231200-
CENTRAL FOOTHILLS

CITY           SKY/WX    TMP DP  RH WIND       PRES   REMARKS
CHARLOTTESVILL CLOUDY    28  23  81 CALM      30.16R
CULPEPER*      CLOUDY    22  19  88 CALM      30.19R
ORANGE*        CLOUDY    21  21 100 CALM      30.18R
GORDONSVILLE*  PTCLDY    22  21  96 MISG      30.17S
WARRENTON*     NOT AVBL

$$

VAZ055>057-231200-
NORTH AND CENTRAL PIEDMONT

CITY           SKY/WX    TMP DP  RH WIND       PRES   REMARKS
FREDERICKSBRG* CLOUDY    28  26  94 NW3       30.19R
STAFFORD*      CLOUDY    22  22 100 CALM      30.22R

$$

NCZ024-NYZ072-PAZ021-071-VAZ022-071-231200-
OTHER REGIONAL OBSERVATIONS

CITY           SKY/WX    TMP DP  RH WIND       PRES   REMARKS
NEW YORK CITY  CLEAR     32  19  58 VRB3      30.11R
PHILADELPHIA   PTCLDY    33  17  51 NW7       30.16R
PITTSBURGH     CLOUDY    23  20  88 CALM      30.15F
ROANOKE        CLOUDY    29  23  78 N3        30.16S
RICHMOND       PTCLDY    31  25  78 CALM      30.17S
RALEIGH        CLOUDY    34  28  79 NE3       30.16R

$$

ANZ530>537-231200-
MARINE OBSERVATIONS

STATION/POSITION TIME  TEMP    WIND        PRES
                       AIR SEA DIR/SP/G
                 (UTC) (F)     (DEG/KT/KT) (MB)
THOMAS PT LIGHT  1100   35 52  310/ 11/ 12   N/A
BALT KEY BRIDGE  1042   35     290/  7/  9 1021.7R
COVE POINT       1042   38     350/ 16/ 21 1021.7S
LEWISETTA        1042   38 50   10/  9/ 14 1021.6R
SOLOMONS ISLAND  1042   36 53  340/  7/ 10 1021.2R
PINEY POINT      1042           10/ 11/ 12   N/A

$$





USA.gov is the U.S. government's official web portal to all federal, state and local government web resources and services.